Location: Bald Mountain Lookout
(37.1036°N, 119.2060°W)
Time: 11:13:15
(UTC+00:00)

Daily predictions for brighter satellites

Satellite Brightness Start Highest point End
(mag) Time Altitude Azimuth Time Altitude Azimuth Time Altitude Azimuth
Cosmos 1603 4.3 12:14:37 53° ENE 12:14:37 53° ENE 12:20:06 10° SE
Nadezhda 4 Rocket 4.0 12:21:28 70° SSE 12:21:28 70° SSE 12:26:50 10° S
Cosmos 676 Rocket 4.5 12:25:26 57° SE 12:25:26 57° SE 12:29:44 10° SSE
CZ-4C R/B 3.1 12:29:20 57° SW 12:29:20 57° SW 12:37:09 10° SSE
Cosmos 1954 Rocket 4.2 12:32:03 69° SE 12:32:03 69° SE 12:36:47 10° SSE
Cosmos 2263 Rocket 3.1 12:41:51 34° N 12:41:51 34° N 12:45:01 10° NNE
Cosmos 1484 Rocket 4.4 12:44:44 27° SSE 12:44:44 27° SSE 12:46:38 10° S
H-2A R/B 3.1 12:49:11 23° S 12:49:33 23° SSE 12:55:04 10° ESE
STARLINK 1042 4.4 12:52:13 44° E 12:52:13 44° E 12:54:54 10° ESE
Meteor 1-20 Rocket 4.1 12:46:27 10° SSW 12:52:17 77° W 12:58:09 10° N
STARLINK 1056 4.1 12:55:30 49° E 12:55:30 49° E 12:58:21 10° ESE
STARLINK 1054 3.9 12:58:48 56° E 12:58:48 56° E 13:01:48 10° SE
Cosmos 44 3.0 12:59:05 61° SW 12:59:53 84° WNW 13:04:30 10° NNE
STARLINK 1062 3.6 13:01:58 63° ESE 13:01:58 63° ESE 13:05:07 10° SE
PSLV R/B 3.9 12:57:24 10° NNE 13:01:33 84° ESE 13:05:39 10° S
Cosmos 1634 Rocket 3.8 12:55:25 10° S 13:01:37 81° W 13:07:50 10° N
FENGYUN 3A 4.4 12:57:49 10° NNE 13:03:05 53° E 13:08:19 10° S
STARLINK 1053 3.4 13:05:26 71° ESE 13:05:26 71° ESE 13:08:44 10° SE
Cosmos 1452 Rocket 4.0 13:06:22 40° NNW 13:06:22 40° NNW 13:10:15 10° N
Cosmos 371 Rocket 4.0 13:00:52 10° S 13:05:34 54° ESE 13:10:19 10° NNE
STARLINK 1061 3.2 13:08:30 79° ESE 13:08:30 79° ESE 13:11:55 10° SE
COSMO-SKYMED 1 2.8 13:05:13 10° SSE 13:09:31 70° ENE 13:12:34 19° N
Cosmos 1844 Rocket 3.8 13:05:56 10° S 13:11:12 45° ESE 13:16:30 10° NE
STARLINK 1067 3.1 13:11:48 84° S 13:11:48 84° S 13:15:22 10° SE
METEOR-M 4.4 13:06:34 10° NNE 13:11:54 68° ESE 13:17:12 10° S
FALCON 9 R/B 3.6 13:09:49 32° W 13:13:53 79° S 13:40:46 10° E
Cosmos 1850 Rocket 4.1 13:10:06 19° NNW 13:14:02 77° ENE 13:19:21 10° SSE
ALOS 2.5 13:09:30 10° NNE 13:14:12 72° ESE 13:18:50 10° S
STARLINK 1058 3.1 13:15:01 79° WSW 13:15:05 79° SW 13:18:42 10° SE
GPS 2-04 Rocket1 3.9 13:15:20 25° SSW 13:16:52 36° SSE 13:20:35 10° E
Cosmos 1627 Rocket 4.4 13:10:47 10° N 13:17:03 74° W 13:23:22 10° S
Cosmos 1340 2.5 13:14:10 10° SSW 13:17:53 65° W 13:21:39 10° N
STARLINK 1043 3.1 13:18:21 70° WSW 13:18:32 73° SW 13:22:09 10° SE
Cosmos 2195 Rocket 4.5 13:13:36 10° NNW 13:19:51 64° W 13:26:03 10° S
Cosmos 1346 Rocket 2.6 13:18:03 10° SSW 13:21:53 66° W 13:25:45 10° N
STARLINK 1065 3.2 13:21:35 62° W 13:21:54 67° SW 13:25:30 10° SE
Cosmos 1733 Rocket 4.0 13:18:34 10° SSE 13:22:42 48° E 13:26:52 10° NNE
Cosmos 1703 Rocket 4.2 13:23:44 35° WSW 13:23:44 35° WSW 13:27:06 10° SSW
Hubble Space Telescope 3.7 13:22:57 10° S 13:24:04 11° SSE 13:25:12 10° SE
CZ-4B R/B 3.8 13:18:35 10° NNE 13:24:10 61° ESE 13:29:46 10° S
USA 234 3.7 13:18:25 10° NNE 13:24:25 40° NW 13:27:10 28° W
OE (NEXTSAT) 4.5 13:24:44 53° WSW 13:25:03 56° SW 13:28:30 10° SE
STARLINK 1063 3.3 13:24:58 55° W 13:25:25 61° SW 13:28:59 10° SE
Cosmos 2221 Rocket 3.7 13:21:36 10° N 13:26:01 74° E 13:30:25 10° SSE
Cosmos 1500 4.3 13:24:05 10° SSE 13:27:45 46° E 13:31:26 10° NNE
NOAA 6 4.3 13:23:36 10° NNE 13:28:43 69° ESE 13:33:49 10° S
STARLINK 1064 3.4 13:28:10 49° W 13:28:46 56° SW 13:32:19 10° SSE
Helios 1A Rocket 3.3 13:25:08 10° NNE 13:29:08 62° ESE 13:33:06 10° S
Cosmos 1655 Rocket 4.5 13:24:00 10° N 13:30:09 62° E 13:36:18 10° SSE
Cosmos 1092 Rocket 4.3 13:26:48 16° NNW 13:31:15 40° W 13:36:53 10° SSW
STARLINK 1041 3.5 13:31:29 43° W 13:32:11 52° SW 13:35:43 10° SSE
Meteor 1-18 Rocket 4.2 13:26:53 10° NNW 13:32:17 59° W 13:37:46 10° S
Cosmos 1943 3.5 13:30:49 27° NW 13:33:19 43° WSW 13:38:34 10° S
STARLINK 1027 3.9 13:34:20 28° SW 13:34:20 28° SW 13:36:37 10° SSE
STARLINK 1028 3.9 13:34:31 28° SW 13:34:31 28° SW 13:36:46 10° SSE
Cosmos 1515 4.0 13:30:32 10° N 13:34:21 68° E 13:38:08 10° SSE
STARLINK 1021 3.9 13:34:48 28° SW 13:34:48 28° SW 13:37:06 10° SSE
STARLINK 1019 3.9 13:34:59 28° SW 13:34:59 28° SW 13:37:21 10° SSE
STARLINK 1012 4.0 13:35:11 27° SW 13:35:11 27° SW 13:37:28 10° SSE
STARLINK 1010 4.0 13:35:24 27° SW 13:35:24 27° SW 13:37:41 10° SSE
STARLINK 1026 4.0 13:35:38 27° SW 13:35:38 27° SW 13:37:55 10° SSE
Cosmos 1869 Rocket 4.4 13:31:42 10° SW 13:38:34 15° NNW 13:39:25 10° NNW
STARLINK 1013 4.0 13:35:50 27° SW 13:35:50 27° SW 13:38:07 10° SSE
STARLINK 1038 3.6 13:34:48 39° W 13:35:38 47° SW 13:39:07 10° SSE
STARLINK 1009 4.0 13:36:04 27° SW 13:36:04 27° SW 13:38:21 10° SSE
STARLINK 1015 4.0 13:36:18 27° SW 13:36:18 27° SW 13:38:38 10° SSE
STARLINK 1016 4.0 13:36:31 27° SW 13:36:31 27° SW 13:38:51 10° SSE
STARLINK 1008 4.0 13:36:45 27° SW 13:36:45 27° SW 13:39:04 10° SSE
STARLINK 1014 4.0 13:36:55 26° SW 13:36:55 26° SW 13:39:13 10° SSE
STARLINK 1025 4.0 13:37:08 26° SW 13:37:08 26° SW 13:39:26 10° S
STARLINK 1017 4.0 13:37:25 26° SW 13:37:25 26° SW 13:39:45 10° S
STARLINK 1023 4.0 13:37:34 26° SW 13:37:34 26° SW 13:39:53 10° S
Okean O Rocket 1.6 13:33:06 10° NNE 13:37:31 88° ESE 13:41:57 10° SSW
STARLINK 1007 4.0 13:37:49 26° SW 13:37:49 26° SW 13:40:10 10° S
STARLINK 1048 4.0 13:38:01 26° SW 13:38:01 26° SW 13:40:20 10° S
STARLINK 1049 4.0 13:38:12 26° SW 13:38:12 26° SW 13:40:30 10° S
STARLINK 1051 4.0 13:38:26 26° SW 13:38:26 26° SW 13:40:45 10° S
STARLINK 1037 4.0 13:38:39 25° SW 13:38:39 25° SW 13:40:59 10° S
STARLINK 1059 4.0 13:38:51 25° SW 13:38:51 25° SW 13:41:10 10° S
STARLINK 1057 4.1 13:39:07 25° SW 13:39:07 25° SW 13:41:28 10° S
STARLINK 1052 4.1 13:39:13 25° SW 13:39:13 25° SW 13:41:32 10° S
STARLINK 1046 3.8 13:38:07 35° W 13:39:05 43° SW 13:42:32 10° SSE
STARLINK 1068 4.1 13:39:33 25° SW 13:39:33 25° SW 13:41:55 10° S
STARLINK 1034 4.1 13:39:39 25° SW 13:39:39 25° SW 13:42:01 10° S
STARLINK 1029 4.1 13:39:47 25° SW 13:39:47 25° SW 13:42:07 10° S
STARLINK 1060 4.1 13:40:00 25° SW 13:40:00 25° SW 13:42:20 10° S
STARLINK 1030 4.1 13:40:10 25° SW 13:40:10 25° SW 13:42:36 10° S
STARLINK 1020 4.1 13:40:26 24° SW 13:40:26 24° SW 13:42:47 10° S
STARLINK 1040 4.3 13:40:59 22° SW 13:40:59 22° SW 13:43:10 10° S
STARLINK 1033 4.1 13:41:03 24° SW 13:41:03 24° SW 13:43:24 10° S
STARLINK 1031 4.1 13:41:13 24° SW 13:41:13 24° SW 13:43:34 10° S
STARLINK 1024 4.1 13:41:28 24° SW 13:41:28 24° SW 13:43:55 10° S
STARLINK 1035 4.1 13:41:39 23° SW 13:41:39 23° SW 13:44:00 10° S
STARLINK 1032 4.1 13:41:54 23° SW 13:41:54 23° SW 13:44:15 10° S
STARLINK 1011 4.1 13:42:06 24° SW 13:42:06 24° SW 13:44:33 10° S
STARLINK 1036 4.2 13:42:23 23° SW 13:42:23 23° SW 13:44:45 10° S
STARLINK 1039 3.9 13:41:26 31° W 13:42:31 40° SW 13:45:57 10° SSE
STARLINK 1047 4.2 13:42:45 23° SW 13:42:45 23° SW 13:45:07 10° S
STARLINK 1045 4.0 13:43:26 29° W 13:44:35 38° SW 13:47:59 10° SSE
PSLV R/B 2.2 13:45:26 57° WNW 13:45:49 86° SSW 13:48:14 10° ESE
Cosmos 1331 Rocket 3.9 13:42:26 10° SSW 13:47:32 64° WNW 13:52:40 10° NNE
Cosmos 44 Rocket 4.1 13:44:23 10° SSW 13:49:10 56° ESE 13:53:54 10° NE
Meteor 1-11 Rocket 4.0 13:44:53 10° S 13:50:35 75° E 13:56:27 10° NNE
Radarsat Rocket 4.5 13:49:43 10° NNE 13:56:13 80° ESE 14:03:35 10° SSW
PAYLOAD B 4.4 13:51:19 10° N 13:56:38 50° WNW 14:01:58 10° SW
Cosmos 1674 Rocket 4.1 13:52:27 10° N 13:56:44 59° E 14:00:58 10° SSE
SKYMED 2 4.4 13:53:51 10° SSW 13:57:42 31° W 14:01:13 12° NW
Okean 1-7 4.4 13:57:26 18° W 13:57:45 18° W 14:00:42 10° SW
Geosat 4.1 13:53:45 10° SSE 13:58:41 60° WSW 14:03:40 10° NNW
Cosmos 1110 Rocket 4.3 13:58:00 10° SW 14:02:52 41° WNW 14:07:45 10° N
Cosmos 304 Rocket 3.7 13:58:29 10° SSW 14:03:15 90° SW 14:08:04 10° NNE
Meteor 1-5 Rocket 4.3 14:01:13 10° SSW 14:07:07 65° W 14:12:56 10° N
NOSS 3-2 (A) 3.3 14:05:29 10° SW 14:11:05 67° NW 14:17:22 10° NNE
Cosmos 2266 Rocket 4.0 14:05:28 10° N 14:11:40 89° E 14:17:44 10° S
Cosmos 1666 3.2 14:08:00 10° S 14:11:46 64° E 14:15:32 10° NNE
Cosmos 1378 Rocket 4.0 14:09:42 10° N 14:14:07 68° E 14:18:32 10° SSE
Meteor 2-4 Rocket 3.8 14:11:15 10° NNW 14:16:30 50° W 14:21:37 10° SSW
GEOS 3 Rocket 4.0 14:13:04 10° SSE 14:17:54 45° WSW 14:22:48 10° NW
ATLAS CENTAUR R/B 3.1 14:15:43 10° N 14:19:12 26° NE 14:22:28 10° ESE
Cosmos 2278 Rocket 3.9 14:15:13 10° S 14:20:25 39° ESE 14:25:38 10° NE
USA 238 DEB 3.8 14:16:02 10° SW 14:22:29 52° NW 14:29:11 10° NNE
USA 238 3.8 14:16:08 10° SW 14:22:35 53° NW 14:29:17 10° NNE
CZ-4 R/B 4.2 14:22:49 10° NE 14:25:58 23° E 14:29:09 10° SSE
CENTAUR R/B 2.7 14:21:19 10° SSW 14:27:01 75° ESE 14:33:40 10° NE
IRIDIUM 114 4.4 14:22:05 10° N 14:27:19 87° W 14:32:32 10° S
AQUARIUS 4.1 14:26:26 10° N 14:30:56 76° WNW 14:35:24 10° SSW
USA 81 4.1 14:28:33 10° N 14:33:50 86° W 14:39:06 10° S
IRIDIUM 103 4.3 14:31:16 10° N 14:36:28 71° W 14:41:39 10° S
